Spencer, IA

3:11 PM CST on March 01, 2017 (GMT -0600)
Spencer Municipal

Weather History for KSPW - December, 2013

Change the Weather History Date:

Sunday, December 29, 2013

  Actual Average Record
Temperature  
Mean Temperature -1 °F -  
Max Temperature 6 °F 22 °F 52 °F (1999)
Min Temperature -8 °F 8 °F -13 °F (1990)
Degree Days  
Heating Degree Days 66    
Moisture  
Dew Point -12 °F    
Average Humidity 62    
Maximum Humidity 76    
Minimum Humidity 45    
Precipitation  
Precipitation 0.00 in - - ()
Sea Level Pressure  
Sea Level Pressure 30.35 in    
Wind  
Wind Speed 24 mph (NW)    
Max Wind Speed 38 mph    
Max Gust Speed 45 mph    
Visibility 10 miles    
Events      
Averages and records for this station are not official NWS values.
T = Trace of Precipitation, MM = Missing Value Source: NWS Daily Summary

Daily Weather History Graph

Daily Weather History Graph

Search for Another Location

Airport or City:

Trip Planner

Search our weather history database for the weather conditions in past years. The results will help you decide how hot, cold, wet, or windy it might be!

Date:

Astronomy

Dec. 29, 2013 Rise Set
Actual Time 7:52 AM CST 4:53 PM CST
Civil Twilight 7:19 AM CST 5:26 PM CST
Nautical Twilight 6:44 AM CST 6:02 PM CST
Astronomical Twilight 6:09 AM CST 6:36 PM CST
Moon 4:34 AM CST (12/29) 2:34 PM CST (12/29)
Length of Visible Light 10h 06m
Length of Day
9h 01m
Waning Crescent, 11% of the Moon is Illuminated
Dec 29
Waning Crescent
Jan 1
New
Jan 7
First Quarter
Jan 15
Full
Jan 23
Last Quarter

Hourly Weather History & Observations

Time (CST) Temp. Windchill Dew Point Humidity Pressure Visibility Wind Dir Wind Speed Gust Speed Precip Events Conditions
12:53 AM 6.1 °F -17.6 °F -0.0 °F 76% 30.16 in 7.0 mi NNW 29.9 mph 42.6 mph N/A   Overcast
1:53 AM 5.0 °F -21.3 °F -0.9 °F 76% 30.19 in 6.0 mi NNW 38.0 mph 44.9 mph N/A   Haze
2:53 AM 3.0 °F -22.1 °F -4.0 °F 73% 30.22 in 10.0 mi NNW 31.1 mph 38.0 mph N/A   Overcast
3:53 AM -0.0 °F -25.9 °F -7.1 °F 72% 30.24 in 10.0 mi NNW 29.9 mph 39.1 mph N/A   Overcast
4:18 AM -0.9 °F -27.1 °F -8.0 °F 72% 30.19 in 10.0 mi NNW 29.9 mph 38.0 mph N/A   Scattered Clouds
4:53 AM -2.0 °F -26.0 °F -9.0 °F 72% 30.27 in 10.0 mi NNW 23.0 mph 33.4 mph N/A   Clear
5:53 AM -2.9 °F -28.6 °F -11.9 °F 65% 30.32 in 10.0 mi NNW 26.5 mph - N/A   Clear
6:53 AM -4.0 °F -29.1 °F -16.1 °F 56% 30.36 in 10.0 mi NNW 24.2 mph 34.5 mph N/A   Clear
7:53 AM -5.1 °F -28.4 °F -17.0 °F 57% 30.37 in 10.0 mi NNW 19.6 mph 25.3 mph N/A   Clear
8:53 AM -5.1 °F -31.0 °F -18.0 °F 54% 30.42 in 10.0 mi NNW 25.3 mph 32.2 mph N/A   Clear
9:53 AM -2.9 °F -28.1 °F -17.0 °F 51% 30.44 in 10.0 mi NNW 25.3 mph 32.2 mph N/A   Clear
10:53 AM -0.9 °F -25.0 °F -17.0 °F 47% 30.45 in 10.0 mi North 24.2 mph 32.2 mph N/A   Clear
11:53 AM 1.0 °F -22.4 °F -16.1 °F 45% 30.44 in 10.0 mi NNW 24.2 mph - N/A   Clear
12:53 PM 1.9 °F -19.8 °F -14.1 °F 47% 30.40 in 10.0 mi NNW 20.7 mph - N/A   Clear
1:53 PM 1.9 °F -20.2 °F -15.0 °F 45% 30.40 in 10.0 mi NNW 21.9 mph 29.9 mph N/A   Clear
2:53 PM 1.9 °F -17.5 °F -13.0 °F 50% 30.40 in 10.0 mi NW 16.1 mph 23.0 mph N/A   Clear
3:53 PM 1.0 °F -19.3 °F -14.1 °F 49% 30.40 in 10.0 mi NW 17.3 mph - N/A   Clear
4:53 PM -0.9 °F -18.3 °F -14.1 °F 54% 30.40 in 10.0 mi NNW 11.5 mph - N/A   Clear
5:53 PM -2.9 °F -18.8 °F -13.0 °F 62% 30.40 in 10.0 mi WNW 9.2 mph - N/A   Clear
6:53 PM -6.0 °F -16.9 °F -14.1 °F 68% 30.39 in 10.0 mi NW 4.6 mph - N/A   Clear
7:53 PM -7.1 °F -18.1 °F -14.1 °F 72% 30.40 in 10.0 mi NW 4.6 mph - N/A   Clear
8:53 PM -8.0 °F -16.9 °F -14.1 °F 75% 30.38 in 10.0 mi NW 3.5 mph - N/A   Clear
9:53 PM -8.0 °F -19.2 °F -15.0 °F 71% 30.38 in 10.0 mi SSW 4.6 mph - N/A   Clear
10:53 PM -7.1 °F -15.9 °F -14.1 °F 72% 30.37 in 10.0 mi South 3.5 mph - N/A   Clear
11:53 PM -6.0 °F -14.7 °F -13.0 °F 72% 30.36 in 10.0 mi South 3.5 mph - N/A   Clear